Regional Weather Roundup
Issued by NWS Burlington, VT

Home | Current Version | Previous Version | Text Only | Print | Product List | Glossary On
Versions: 1 2 3 4 5 6 7 8 9 10 11 12 13 14 15 16 17 18 19 20 21 22 23 24 25 26 27
000
ASUS41 KBTV 252110
RWRBTV
VERMONT REGIONAL WEATHER ROUNDUP
NATIONAL WEATHER SERVICE BURLINGTON VT
500 PM EDT SAT OCT 25 2014

NOTE: "FAIR" INDICATES FEW OR NO CLOUDS BELOW 12,000 FEET WITH NO
SIGNIFICANT WEATHER AND/OR OBSTRUCTIONS TO VISIBILITY.

* THESE REPORTS ARE NOT UNDER NWS QUALITY CONTROL AND/OR DO NOT
  REPORT WEATHER SUCH AS PRECIPITATION AND FOG.

VTZ001>019-252200-
_____VERMONT_____


CITY           SKY/WX    TMP DP  RH WIND       PRES   REMARKS
BURLINGTON     CLOUDY    57  43  59 S9        29.54F
MONTPELIER     PTCLDY    54  42  64 S6        29.60F
MORRISVILLE    MOCLDY    56  41  57 SW6       29.57F
ST. JOHNSBURY*   N/A     56  43  61 MISG      29.54F
LYNDONVILLE*   CLOUDY    55  38  54 CALM      29.57F
MIDDLEBURY*    MOCLDY    56  45  65 S6        29.56F
RUTLAND*       CLOUDY    55  45  67 SW7       29.58F
SPRINGFIELD    CLOUDY    59  42  53 VRB7      29.60R
HIGHGATE*      LGT RAIN  55  44  66 S6        29.52F
NEWPORT*       MOCLDY    53  43  68 S3        29.55F
BENNINGTON     MOCLDY    59  44  57 W3        29.61F
SUTTON*          N/A     52 N/A N/A MISG        N/A

_____LAKE CHAMPLAIN_____


CITY           SKY/WX    TMP DP  RH WIND       PRES   REMARKS
COLCHESTER RF*   N/A     55  48  76 SW14        N/A
DIAMOND ISL*     N/A     57  46  67 S5          N/A

$$

NYZ007-026>031-035-052-083-252200-
_____NORTHERN NEW YORK_____


CITY           SKY/WX    TMP DP  RH WIND       PRES   REMARKS
PLATTSBURGH    LGT RAIN  53  48  83 CALM      29.53F
SARANAC LAKE   LGT RAIN  50  46  86 SW6       29.53F FOG
MASSENA        CLOUDY    54  51  90 SW17      29.49F
OGDENSBURG*    LGT RAIN  54  52  94 SW5       29.49F
POTSDAM*       CLOUDY    54  54 100 SW8       29.50F
WATERTOWN      CLOUDY    59  50  72 W14G21    29.52F
FT DRUM        LGT RAIN  54  52  94 W3        29.52S FOG
ALBANY         MOCLDY    61  45  55 SE5       29.60F
GLENS FALLS    MOCLDY    59  45  59 SW6       29.57F

$$
NHZ002-005-011-252200-
_____NEW HAMPSHIRE_____


CITY           SKY/WX    TMP DP  RH WIND       PRES   REMARKS
LEBANON        CLOUDY    59  41  51 SW3       29.58R
KEENE          PTCLDY    61  39  44 W10       29.61R
MT WASHINGTON  FOG       32  31  99 W21         N/A  VSB 1/8
PLYMOUTH       FAIR      60  44  55 CALM      29.56S
WHITEFIELD     MOCLDY    55  41  59 CALM      29.57S

$$

_____REGIONAL QUEBEC LOCATIONS_____


CITY           SKY/WX    TMP DP  RH WIND       PRES   REMARKS
MONTREAL       LGT RAIN  54  50  87 SW8       29.49F
QUEBEC CITY    CLOUDY    50  39  66 CALM      29.52F
SHERBROOKE     CLOUDY    54  43  66 S3        29.52F

_____REGIONAL ONTARIO LOCATIONS_____


CITY           SKY/WX    TMP DP  RH WIND       PRES   REMARKS
OTTAWA         MOCLDY    54  52  94 SW10G18   29.46F FOG

______KEY______
VSB  - VISIBILITY IN MILES
WCI  - WIND CHILL INDEX
HX   - HEAT INDEX
$$
NNNN



USA.gov is the U.S. government's official web portal to all federal, state and local government web resources and services.